Terug naar catalogus

QIANFAN DTC 01

ActiefCommunicatieVLEO
NORAD 69472·PAYLOAD·🇨🇳 China
Deze satellietnaam is nog niet bevestigd door officiële bronnen.

Gelanceerd Jun 9, 2026 vanaf Jiuquan Satellite Launch Center

Loading…

Volgende Passages (komende 24 uur)

TLE

VersSource: Space-Track

Epoch: Sep 14, 2026, 07:37 UTC

1 69472U 26128A   26257.31748951  .00014751  00000-0  25166-3 0  9998
2 69472  54.9908 253.0203 0014683 134.8571 225.3659 15.51529359 15105

Volg QIANFAN DTC 01 in realtime met AllMySat

Download on the App Store